Time,TemperatureF,DewpointF,PressureIn,WindDirection,WindDirectionDegrees,WindSpeedMPH,WindSpeedGustMPH,Humidity,HourlyPrecipIn,Conditions,Clouds,dailyrainin,SoftwareType,DateUTC
2013-03-08 00:00:00,31.3,29.8,29.85,North,10,32.0,33.0,94,0.01,,SKC,0.02,VWS V13.01,2013-03-08 05:00:00,
2013-03-08 00:01:00,31.3,29.8,29.85,North,5,30.0,40.0,94,0.01,,SKC,0.02,VWS V13.01,2013-03-08 05:01:00,
2013-03-08 00:02:00,31.3,29.8,29.85,North,9,18.0,34.0,94,0.01,,SKC,0.00,VWS V13.01,2013-03-08 05:02:00,
2013-03-08 00:07:00,31.4,29.9,29.85,North,355,18.0,34.0,94,0.01,,SKC,0.00,VWS V13.01,2013-03-08 05:07:00,
2013-03-08 00:12:00,31.4,29.9,29.85,NNE,28,25.0,30.0,94,0.01,,SKC,0.00,VWS V13.01,2013-03-08 05:12:00,
2013-03-08 00:17:00,31.5,30.0,29.85,North,5,33.0,34.0,94,0.01,,SKC,0.00,VWS V13.01,2013-03-08 05:17:00,
2013-03-08 00:22:00,31.5,29.7,29.85,North,5,23.0,32.0,93,0.01,,SKC,0.00,VWS V13.01,2013-03-08 05:22:00,
2013-03-08 00:27:00,31.5,29.7,29.85,NNW,345,26.0,34.0,93,0.01,,SKC,0.00,VWS V13.01,2013-03-08 05:27:00,
2013-03-08 00:32:00,31.6,29.8,29.85,NNE,17,33.0,34.0,93,0.00,,SKC,0.00,VWS V13.01,2013-03-08 05:32:00,
2013-03-08 00:37:00,31.6,29.8,29.85,North,10,33.0,40.0,93,0.00,,SKC,0.00,VWS V13.01,2013-03-08 05:37:00,
2013-03-08 00:43:00,31.7,29.6,29.84,North,5,22.0,36.0,92,0.00,,SKC,0.00,VWS V13.01,2013-03-08 05:43:00,
2013-03-08 00:48:00,31.8,29.8,29.85,NE,38,22.0,38.0,92,0.00,,SKC,0.00,VWS V13.01,2013-03-08 05:48:00,
2013-03-08 00:53:00,31.8,29.8,29.84,North,355,23.0,33.0,92,0.00,,SKC,0.00,VWS V13.01,2013-03-08 05:53:00,
2013-03-08 00:58:00,31.9,29.8,29.85,North,5,26.0,33.0,92,0.00,,SKC,0.00,VWS V13.01,2013-03-08 05:58:00,
2013-03-08 01:03:00,31.9,29.8,29.85,North,355,24.0,34.0,92,0.00,,SKC,0.00,VWS V13.01,2013-03-08 06:03:00,
2013-03-08 01:08:00,31.9,29.6,29.85,North,11,22.0,36.0,91,0.00,,SKC,0.00,VWS V13.01,2013-03-08 06:08:00,
2013-03-08 01:13:00,32.0,29.7,29.85,North,360,28.0,33.0,91,0.00,,SKC,0.00,VWS V13.01,2013-03-08 06:13:00,
2013-03-08 01:18:00,32.1,29.8,29.85,NNE,22,24.0,33.0,91,0.00,,SKC,0.00,VWS V13.01,2013-03-08 06:18:00,
2013-03-08 01:23:00,32.1,29.8,29.85,NNE,19,21.0,32.0,91,0.00,,SKC,0.00,VWS V13.01,2013-03-08 06:23:00,
2013-03-08 01:28:00,32.2,29.6,29.85,North,5,19.0,33.0,90,0.00,,SKC,0.00,VWS V13.01,2013-03-08 06:28:00,
2013-03-08 01:33:00,32.3,29.7,29.85,NNE,28,20.0,28.0,90,0.00,,SKC,0.00,VWS V13.01,2013-03-08 06:33:00,
2013-03-08 01:38:00,32.3,29.7,29.85,North,5,31.0,33.0,90,0.00,,SKC,0.00,VWS V13.01,2013-03-08 06:38:00,
2013-03-08 01:43:00,32.4,29.8,29.85,North,11,32.0,33.0,90,0.00,,SKC,0.00,VWS V13.01,2013-03-08 06:43:00,
2013-03-08 01:48:00,32.4,29.5,29.85,NNE,29,31.0,33.0,89,0.00,,SKC,0.00,VWS V13.01,2013-03-08 06:48:00,
2013-03-08 01:53:00,32.4,29.8,29.85,NNE,17,21.0,33.0,90,0.00,,SKC,0.00,VWS V13.01,2013-03-08 06:53:00,
2013-03-08 01:58:00,32.3,29.4,29.85,North,10,28.0,35.0,89,0.00,,SKC,0.00,VWS V13.01,2013-03-08 06:58:00,
2013-03-08 02:03:00,32.3,29.7,29.85,North,5,27.0,34.0,90,0.00,,SKC,0.00,VWS V13.01,2013-03-08 07:03:00,
2013-03-08 02:08:00,32.4,29.8,29.84,North,5,32.0,34.0,90,0.00,,SKC,0.00,VWS V13.01,2013-03-08 07:08:00,
2013-03-08 02:13:00,32.4,29.5,29.84,North,355,25.0,32.0,89,0.00,,SKC,0.00,VWS V13.01,2013-03-08 07:13:00,
2013-03-08 02:18:00,32.4,29.5,29.84,North,5,27.0,33.0,89,0.00,,SKC,0.00,VWS V13.01,2013-03-08 07:18:00,
2013-03-08 02:23:00,32.4,29.5,29.84,North,5,24.0,27.0,89,0.00,,SKC,0.00,VWS V13.01,2013-03-08 07:23:00,
2013-03-08 02:28:00,32.4,29.5,29.84,NNE,19,17.0,34.0,89,0.00,,SKC,0.00,VWS V13.01,2013-03-08 07:28:00,
2013-03-08 02:33:00,32.4,29.5,29.84,NNE,19,28.0,30.0,89,0.00,,SKC,0.00,VWS V13.01,2013-03-08 07:33:00,
2013-03-08 02:38:00,32.3,29.4,29.84,NNE,20,29.0,36.0,89,0.00,,SKC,0.00,VWS V13.01,2013-03-08 07:38:00,
2013-03-08 02:43:00,32.3,29.4,29.84,North,5,22.0,30.0,89,0.00,,SKC,0.00,VWS V13.01,2013-03-08 07:43:00,
2013-03-08 02:48:00,32.3,29.4,29.84,North,350,23.0,33.0,89,0.00,,SKC,0.00,VWS V13.01,2013-03-08 07:48:00,
2013-03-08 02:53:00,32.3,29.4,29.83,NNE,21,28.0,32.0,89,0.00,,SKC,0.00,VWS V13.01,2013-03-08 07:53:00,
2013-03-08 02:58:00,32.2,29.0,29.83,NNE,26,19.0,32.0,88,0.00,,SKC,0.00,VWS V13.01,2013-03-08 07:58:00,
2013-03-08 03:03:00,32.2,29.0,29.83,North,5,24.0,33.0,88,0.00,,SKC,0.00,VWS V13.01,2013-03-08 08:03:00,
2013-03-08 03:08:00,32.3,29.1,29.83,North,11,22.0,37.0,88,0.00,,SKC,0.00,VWS V13.01,2013-03-08 08:08:00,
2013-03-08 03:13:00,32.2,28.8,29.83,North,11,28.0,34.0,87,0.00,,SKC,0.00,VWS V13.01,2013-03-08 08:13:00,
2013-03-08 03:18:00,32.2,29.0,29.83,NNE,28,20.0,35.0,88,0.00,,SKC,0.00,VWS V13.01,2013-03-08 08:18:00,
2013-03-08 03:23:00,32.2,29.0,29.83,NNE,26,29.0,40.0,88,0.00,,SKC,0.00,VWS V13.01,2013-03-08 08:23:00,
2013-03-08 03:28:00,32.2,29.0,29.83,NNE,12,25.0,40.0,88,0.00,,SKC,0.00,VWS V13.01,2013-03-08 08:28:00,
2013-03-08 03:33:00,32.1,29.0,29.83,NNE,15,16.0,32.0,88,0.00,,SKC,0.00,VWS V13.01,2013-03-08 08:33:00,
2013-03-08 03:38:00,31.9,29.0,29.83,North,5,16.0,33.0,89,0.00,,SKC,0.00,VWS V13.01,2013-03-08 08:38:00,
2013-03-08 03:43:00,31.8,28.9,29.83,NNE,17,25.0,34.0,89,0.00,,SKC,0.00,VWS V13.01,2013-03-08 08:43:00,
2013-03-08 03:48:00,31.6,29.0,29.83,North,5,27.0,39.0,90,0.00,,SKC,0.00,VWS V13.01,2013-03-08 08:48:00,
2013-03-08 03:53:00,31.6,29.0,29.83,NNE,13,22.0,34.0,90,0.00,,SKC,0.00,VWS V13.01,2013-03-08 08:53:00,
2013-03-08 03:58:00,31.5,28.9,29.83,North,355,31.0,35.0,90,0.00,,SKC,0.00,VWS V13.01,2013-03-08 08:58:00,
2013-03-08 04:03:00,31.3,29.0,29.84,NNE,15,30.0,33.0,91,0.00,,SKC,0.00,VWS V13.01,2013-03-08 09:03:00,
2013-03-08 04:08:00,31.2,29.1,29.84,North,5,20.0,33.0,92,0.00,,SKC,0.00,VWS V13.01,2013-03-08 09:08:00,
2013-03-08 04:13:00,31.0,29.0,29.84,North,9,29.0,33.0,92,0.00,,SKC,0.00,VWS V13.01,2013-03-08 09:13:00,
2013-03-08 04:18:00,30.9,28.9,29.84,North,9,32.0,33.0,92,0.00,,SKC,0.00,VWS V13.01,2013-03-08 09:18:00,
2013-03-08 04:23:00,30.9,29.1,29.84,NNE,13,28.0,32.0,93,0.00,,SKC,0.00,VWS V13.01,2013-03-08 09:23:00,
2013-03-08 04:28:00,30.8,29.0,29.84,North,5,20.0,32.0,93,0.00,,SKC,0.00,VWS V13.01,2013-03-08 09:28:00,
2013-03-08 04:33:00,30.8,29.0,29.84,NNE,18,17.0,29.0,93,0.00,,SKC,0.00,VWS V13.01,2013-03-08 09:33:00,
2013-03-08 04:38:00,30.8,29.0,29.84,North,9,31.0,34.0,93,0.00,,SKC,0.00,VWS V13.01,2013-03-08 09:38:00,
2013-03-08 04:43:00,30.7,28.9,29.84,NNE,20,17.0,28.0,93,0.00,,SKC,0.00,VWS V13.01,2013-03-08 09:43:00,
2013-03-08 04:48:00,30.7,29.2,29.84,NNE,13,23.0,34.0,94,0.00,,SKC,0.00,VWS V13.01,2013-03-08 09:48:00,
2013-03-08 04:54:00,30.7,29.2,29.83,North,5,17.0,31.0,94,0.00,,SKC,0.00,VWS V13.01,2013-03-08 09:54:00,
2013-03-08 04:59:00,30.7,29.2,29.83,North,5,29.0,31.0,94,0.00,,SKC,0.00,VWS V13.01,2013-03-08 09:59:00,
2013-03-08 05:04:00,30.6,29.1,29.83,North,5,26.0,32.0,94,0.00,,SKC,0.00,VWS V13.01,2013-03-08 10:04:00,
2013-03-08 05:09:00,30.6,29.1,29.83,North,5,23.0,32.0,94,0.00,,SKC,0.00,VWS V13.01,2013-03-08 10:09:00,
2013-03-08 05:14:00,30.5,29.0,29.83,North,5,24.0,32.0,94,0.01,,SKC,0.01,VWS V13.01,2013-03-08 10:14:00,
2013-03-08 05:19:00,30.6,29.1,29.83,North,5,19.0,33.0,94,0.01,,SKC,0.01,VWS V13.01,2013-03-08 10:19:00,
2013-03-08 05:24:00,30.6,29.1,29.83,North,10,18.0,26.0,94,0.01,,SKC,0.01,VWS V13.01,2013-03-08 10:24:00,
2013-03-08 05:29:00,30.6,29.1,29.83,North,5,19.0,32.0,94,0.01,,SKC,0.01,VWS V13.01,2013-03-08 10:29:00,
2013-03-08 05:34:00,30.6,29.1,29.83,North,5,28.0,33.0,94,0.01,,SKC,0.01,VWS V13.01,2013-03-08 10:34:00,
2013-03-08 05:39:00,30.6,29.1,29.83,NNE,14,24.0,33.0,94,0.01,,SKC,0.01,VWS V13.01,2013-03-08 10:39:00,
2013-03-08 05:44:00,30.6,29.1,29.83,North,9,33.0,33.0,94,0.01,,SKC,0.01,VWS V13.01,2013-03-08 10:44:00,
2013-03-08 05:49:00,30.6,29.1,29.83,North,355,21.0,36.0,94,0.01,,SKC,0.01,VWS V13.01,2013-03-08 10:49:00,
2013-03-08 05:54:00,30.6,29.1,29.83,NNE,21,21.0,33.0,94,0.01,,SKC,0.01,VWS V13.01,2013-03-08 10:54:00,
2013-03-08 05:59:00,30.6,29.1,29.83,NNE,12,17.0,33.0,94,0.01,,SKC,0.01,VWS V13.01,2013-03-08 10:59:00,
2013-03-08 06:04:00,30.7,29.2,29.83,North,11,23.0,36.0,94,0.01,,SKC,0.01,VWS V13.01,2013-03-08 11:04:00,
2013-03-08 06:09:00,30.7,29.2,29.83,North,5,19.0,36.0,94,0.01,,SKC,0.01,VWS V13.01,2013-03-08 11:09:00,
2013-03-08 06:14:00,30.7,29.2,29.83,North,5,22.0,29.0,94,0.00,,SKC,0.01,VWS V13.01,2013-03-08 11:14:00,
2013-03-08 06:19:00,30.7,29.2,29.83,North,360,31.0,33.0,94,0.00,,SKC,0.01,VWS V13.01,2013-03-08 11:19:00,
2013-03-08 06:24:00,30.7,29.2,29.83,NNE,27,25.0,30.0,94,0.00,,SKC,0.01,VWS V13.01,2013-03-08 11:24:00,
2013-03-08 06:29:00,30.7,29.2,29.83,North,11,23.0,34.0,94,0.00,,SKC,0.01,VWS V13.01,2013-03-08 11:29:00,
2013-03-08 06:34:00,30.8,29.3,29.83,NNE,15,32.0,33.0,94,0.00,,SKC,0.01,VWS V13.01,2013-03-08 11:34:00,
2013-03-08 06:39:00,30.8,29.0,29.83,North,5,28.0,36.0,93,0.00,,SKC,0.01,VWS V13.01,2013-03-08 11:39:00,
2013-03-08 06:44:00,30.8,29.0,29.83,North,11,29.0,33.0,93,0.00,,SKC,0.01,VWS V13.01,2013-03-08 11:44:00,
2013-03-08 06:49:00,30.9,29.1,29.83,North,5,28.0,35.0,93,0.00,,SKC,0.01,VWS V13.01,2013-03-08 11:49:00,
2013-03-08 06:54:00,30.9,29.1,29.83,North,9,22.0,30.0,93,0.00,,SKC,0.01,VWS V13.01,2013-03-08 11:54:00,
2013-03-08 06:59:00,30.9,29.1,29.83,North,11,21.0,34.0,93,0.00,,SKC,0.01,VWS V13.01,2013-03-08 11:59:00,
2013-03-08 07:04:00,30.9,29.1,29.83,North,9,28.0,33.0,93,0.00,,SKC,0.01,VWS V13.01,2013-03-08 12:04:00,
2013-03-08 07:09:00,30.8,29.0,29.83,NNE,13,21.0,33.0,93,0.00,,SKC,0.01,VWS V13.01,2013-03-08 12:09:00,
2013-03-08 07:14:00,30.8,29.3,29.83,North,11,29.0,32.0,94,0.00,,SKC,0.01,VWS V13.01,2013-03-08 12:14:00,
2013-03-08 07:19:00,30.8,29.3,29.83,NNE,12,23.0,35.0,94,0.00,,SKC,0.01,VWS V13.01,2013-03-08 12:19:00,
2013-03-08 07:24:00,30.8,29.3,29.83,North,11,18.0,29.0,94,0.00,,SKC,0.01,VWS V13.01,2013-03-08 12:24:00,
2013-03-08 07:29:00,30.8,29.3,29.84,NNE,13,28.0,33.0,94,0.00,,SKC,0.01,VWS V13.01,2013-03-08 12:29:00,
2013-03-08 07:34:00,30.8,29.3,29.83,NNE,15,30.0,33.0,94,0.00,,SKC,0.01,VWS V13.01,2013-03-08 12:34:00,
2013-03-08 07:39:00,30.8,29.3,29.83,NNE,15,28.0,33.0,94,0.00,,SKC,0.01,VWS V13.01,2013-03-08 12:39:00,
2013-03-08 07:44:00,30.9,29.4,29.84,North,360,22.0,36.0,94,0.00,,SKC,0.01,VWS V13.01,2013-03-08 12:44:00,
2013-03-08 07:49:00,31.1,29.3,29.84,North,5,20.0,36.0,93,0.00,,SKC,0.01,VWS V13.01,2013-03-08 12:49:00,
2013-03-08 07:54:00,31.2,29.4,29.84,North,5,23.0,34.0,93,0.00,,SKC,0.01,VWS V13.01,2013-03-08 12:54:00,
2013-03-08 07:59:00,31.3,29.5,29.84,North,5,29.0,40.0,93,0.00,,SKC,0.01,VWS V13.01,2013-03-08 12:59:00,
2013-03-08 08:04:00,31.3,29.5,29.84,North,360,16.0,30.0,93,0.00,,SKC,0.01,VWS V13.01,2013-03-08 13:04:00,
2013-03-08 08:09:00,31.3,29.5,29.84,NNE,12,17.0,32.0,93,0.00,,SKC,0.01,VWS V13.01,2013-03-08 13:09:00,
2013-03-08 08:14:00,31.3,29.5,29.84,NNE,12,26.0,34.0,93,0.00,,SKC,0.01,VWS V13.01,2013-03-08 13:14:00,
2013-03-08 08:20:00,31.3,29.5,29.84,North,11,20.0,34.0,93,0.00,,SKC,0.01,VWS V13.01,2013-03-08 13:20:00,
2013-03-08 08:25:00,31.3,29.5,29.84,North,5,30.0,34.0,93,0.00,,SKC,0.01,VWS V13.01,2013-03-08 13:25:00,
2013-03-08 08:30:00,31.3,29.5,29.84,NNE,20,20.0,34.0,93,0.00,,SKC,0.01,VWS V13.01,2013-03-08 13:30:00,
2013-03-08 08:35:00,31.3,29.5,29.84,North,5,21.0,35.0,93,0.00,,SKC,0.01,VWS V13.01,2013-03-08 13:35:00,
2013-03-08 08:40:00,31.4,29.6,29.84,North,9,31.0,35.0,93,0.00,,SKC,0.01,VWS V13.01,2013-03-08 13:40:00,
2013-03-08 08:45:00,31.3,29.5,29.84,North,9,30.0,33.0,93,0.00,,SKC,0.01,VWS V13.01,2013-03-08 13:45:00,
2013-03-08 08:50:00,31.2,29.4,29.84,North,5,20.0,33.0,93,0.00,,SKC,0.01,VWS V13.01,2013-03-08 13:50:00,
2013-03-08 08:55:00,31.2,29.7,29.84,North,5,30.0,31.0,94,0.00,,SKC,0.01,VWS V13.01,2013-03-08 13:55:00,
2013-03-08 09:00:00,31.3,29.8,29.84,North,10,24.0,36.0,94,0.00,,SKC,0.01,VWS V13.01,2013-03-08 14:00:00,
2013-03-08 09:05:00,31.4,29.6,29.84,North,5,27.0,33.0,93,0.00,,SKC,0.01,VWS V13.01,2013-03-08 14:05:00,
2013-03-08 09:10:00,31.5,29.7,29.84,NNE,24,24.0,34.0,93,0.00,,SKC,0.01,VWS V13.01,2013-03-08 14:10:00,
2013-03-08 09:15:00,31.7,29.9,29.84,North,9,19.0,33.0,93,0.00,,SKC,0.01,VWS V13.01,2013-03-08 14:15:00,
2013-03-08 09:20:00,31.6,29.8,29.84,NNE,18,33.0,33.0,93,0.00,,SKC,0.01,VWS V13.01,2013-03-08 14:20:00,
2013-03-08 09:25:00,31.7,29.6,29.84,NNE,16,23.0,33.0,92,0.00,,SKC,0.01,VWS V13.01,2013-03-08 14:25:00,
2013-03-08 09:30:00,31.8,29.8,29.84,NNE,12,23.0,33.0,92,0.00,,SKC,0.01,VWS V13.01,2013-03-08 14:30:00,
2013-03-08 09:35:00,31.8,29.8,29.84,North,11,26.0,34.0,92,0.00,,SKC,0.01,VWS V13.01,2013-03-08 14:35:00,
2013-03-08 09:40:00,31.8,29.8,29.84,North,11,29.0,34.0,92,0.00,,SKC,0.01,VWS V13.01,2013-03-08 14:40:00,
2013-03-08 09:45:00,31.9,29.8,29.84,NE,34,28.0,37.0,92,0.01,,SKC,0.02,VWS V13.01,2013-03-08 14:45:00,
2013-03-08 09:50:00,31.9,29.8,29.84,NNE,24,27.0,37.0,92,0.01,,SKC,0.02,VWS V13.01,2013-03-08 14:50:00,
2013-03-08 09:55:00,32.0,29.9,29.84,NNE,28,25.0,37.0,92,0.01,,SKC,0.02,VWS V13.01,2013-03-08 14:55:00,
2013-03-08 10:00:00,32.0,29.9,29.84,NNE,18,29.0,37.0,92,0.01,,SKC,0.02,VWS V13.01,2013-03-08 15:00:00,
2013-03-08 10:05:00,32.1,30.0,29.84,NNE,21,37.0,44.0,92,0.01,,SKC,0.02,VWS V13.01,2013-03-08 15:05:00,
2013-03-08 10:10:00,32.1,30.0,29.84,NNE,19,34.0,44.0,92,0.01,,SKC,0.02,VWS V13.01,2013-03-08 15:10:00,
2013-03-08 10:15:00,32.0,29.9,29.84,NNE,19,23.0,39.0,92,0.01,,SKC,0.02,VWS V13.01,2013-03-08 15:15:00,
2013-03-08 10:20:00,31.7,29.6,29.84,NNE,19,33.0,39.0,92,0.01,,SKC,0.02,VWS V13.01,2013-03-08 15:20:00,
2013-03-08 10:25:00,31.5,29.7,29.84,NNE,13,34.0,35.0,93,0.01,,SKC,0.02,VWS V13.01,2013-03-08 15:25:00,
2013-03-08 10:31:00,31.4,29.6,29.85,NNE,13,19.0,42.0,93,0.01,,SKC,0.02,VWS V13.01,2013-03-08 15:31:00,
2013-03-08 10:36:00,31.4,29.9,29.85,NNE,23,20.0,40.0,94,0.01,,SKC,0.02,VWS V13.01,2013-03-08 15:36:00,
2013-03-08 10:41:00,31.4,29.9,29.85,NNE,18,33.0,40.0,94,0.01,,SKC,0.02,VWS V13.01,2013-03-08 15:41:00,
2013-03-08 10:46:00,31.4,29.9,29.85,NNE,27,25.0,38.0,94,0.01,,SKC,0.02,VWS V13.01,2013-03-08 15:46:00,
2013-03-08 10:51:00,31.5,30.0,29.85,North,5,34.0,38.0,94,0.01,,SKC,0.02,VWS V13.01,2013-03-08 15:51:00,
2013-03-08 10:56:00,31.5,30.0,29.85,NE,38,29.0,38.0,94,0.00,,SKC,0.02,VWS V13.01,2013-03-08 15:56:00,
2013-03-08 11:01:00,31.5,30.0,29.85,NNE,20,33.0,38.0,94,0.00,,SKC,0.02,VWS V13.01,2013-03-08 16:01:00,
2013-03-08 11:06:00,31.7,29.9,29.85,North,5,24.0,39.0,93,0.00,,SKC,0.02,VWS V13.01,2013-03-08 16:06:00,
2013-03-08 11:11:00,31.8,30.0,29.85,NNE,22,25.0,40.0,93,0.00,,SKC,0.02,VWS V13.01,2013-03-08 16:11:00,
2013-03-08 11:16:00,32.0,30.2,29.85,NNE,13,33.0,36.0,93,0.00,,SKC,0.02,VWS V13.01,2013-03-08 16:16:00,
2013-03-08 11:21:00,32.0,29.9,29.85,NNE,22,33.0,40.0,92,0.00,,SKC,0.02,VWS V13.01,2013-03-08 16:21:00,
2013-03-08 11:26:00,32.0,29.9,29.86,NNE,22,26.0,38.0,92,0.00,,SKC,0.02,VWS V13.01,2013-03-08 16:26:00,
2013-03-08 11:31:00,32.0,29.9,29.86,North,5,25.0,38.0,92,0.00,,SKC,0.02,VWS V13.01,2013-03-08 16:31:00,
2013-03-08 11:36:00,32.1,30.0,29.85,NNE,14,33.0,42.0,92,0.00,,SKC,0.02,VWS V13.01,2013-03-08 16:36:00,
2013-03-08 11:41:00,32.0,29.9,29.86,North,360,23.0,42.0,92,0.00,,SKC,0.02,VWS V13.01,2013-03-08 16:41:00,
2013-03-08 11:46:00,32.0,29.9,29.86,NNE,25,28.0,36.0,92,0.00,,SKC,0.02,VWS V13.01,2013-03-08 16:46:00,
2013-03-08 11:51:00,32.0,29.9,29.85,NNE,14,22.0,42.0,92,0.00,,SKC,0.02,VWS V13.01,2013-03-08 16:51:00,
2013-03-08 11:56:00,31.8,29.8,29.85,NNE,16,25.0,40.0,92,0.00,,SKC,0.02,VWS V13.01,2013-03-08 16:56:00,
2013-03-08 12:01:00,31.8,29.8,29.85,North,5,24.0,24.0,92,0.00,,SKC,0.02,VWS V13.01,2013-03-08 17:01:00,
2013-03-08 12:06:00,31.8,29.8,29.86,NNE,22,24.0,40.0,92,0.00,,SKC,0.02,VWS V13.01,2013-03-08 17:06:00,
2013-03-08 12:11:00,31.9,29.8,29.85,North,9,22.0,24.0,92,0.00,,SKC,0.02,VWS V13.01,2013-03-08 17:11:00,
2013-03-08 12:16:00,31.9,29.8,29.85,North,355,29.0,40.0,92,0.00,,SKC,0.02,VWS V13.01,2013-03-08 17:16:00,
2013-03-08 12:21:00,32.0,29.9,29.85,North,355,31.0,31.0,92,0.00,,SKC,0.02,VWS V13.01,2013-03-08 17:21:00,
2013-03-08 12:26:00,32.2,29.9,29.85,NNE,21,31.0,42.0,91,0.00,,SKC,0.02,VWS V13.01,2013-03-08 17:26:00,
2013-03-08 12:31:00,32.5,30.2,29.85,North,10,33.0,35.0,91,0.00,,SKC,0.02,VWS V13.01,2013-03-08 17:31:00,
2013-03-08 12:36:00,32.5,29.9,29.85,North,5,20.0,44.0,90,0.00,,SKC,0.02,VWS V13.01,2013-03-08 17:36:00,
2013-03-08 12:41:00,32.5,29.9,29.86,North,355,41.0,43.0,90,0.00,,SKC,0.02,VWS V13.01,2013-03-08 17:41:00,
2013-03-08 12:46:00,32.4,29.8,29.86,North,9,28.0,43.0,90,0.00,,SKC,0.02,VWS V13.01,2013-03-08 17:46:00,
2013-03-08 12:51:00,32.4,29.5,29.85,NNE,19,34.0,38.0,89,0.00,,SKC,0.02,VWS V13.01,2013-03-08 17:51:00,
2013-03-08 12:56:00,32.5,29.6,29.86,NNE,28,29.0,46.0,89,0.00,,SKC,0.02,VWS V13.01,2013-03-08 17:56:00,
2013-03-08 13:01:00,32.6,29.7,29.85,North,5,36.0,43.0,89,0.00,,SKC,0.02,VWS V13.01,2013-03-08 18:01:00,
2013-03-08 13:07:00,32.7,29.8,29.86,NNE,19,38.0,43.0,89,0.00,,SKC,0.02,VWS V13.01,2013-03-08 18:07:00,
2013-03-08 13:12:00,32.8,29.9,29.85,NE,36,33.0,40.0,89,0.00,,SKC,0.02,VWS V13.01,2013-03-08 18:12:00,
2013-03-08 13:17:00,32.9,30.0,29.86,NNW,346,26.0,41.0,89,0.00,,SKC,0.02,VWS V13.01,2013-03-08 18:17:00,
2013-03-08 13:22:00,33.0,29.8,29.86,North,11,24.0,33.0,88,0.00,,SKC,0.02,VWS V13.01,2013-03-08 18:22:00,
2013-03-08 13:27:00,33.1,29.9,29.86,NNE,14,37.0,42.0,88,0.00,,SKC,0.02,VWS V13.01,2013-03-08 18:27:00,
2013-03-08 13:32:00,33.1,29.9,29.86,North,11,31.0,39.0,88,0.00,,SKC,0.02,VWS V13.01,2013-03-08 18:32:00,
2013-03-08 13:37:00,33.1,29.9,29.86,North,9,32.0,46.0,88,0.00,,SKC,0.02,VWS V13.01,2013-03-08 18:37:00,
2013-03-08 13:42:00,33.1,29.9,29.86,NE,35,30.0,46.0,88,0.00,,SKC,0.02,VWS V13.01,2013-03-08 18:42:00,
2013-03-08 13:47:00,33.2,30.0,29.86,NNE,18,28.0,46.0,88,0.00,,SKC,0.02,VWS V13.01,2013-03-08 18:47:00,
2013-03-08 13:52:00,33.2,30.0,29.86,NE,34,38.0,38.0,88,0.00,,SKC,0.02,VWS V13.01,2013-03-08 18:52:00,
2013-03-08 13:57:00,33.1,29.9,29.86,NNE,13,33.0,46.0,88,0.00,,SKC,0.02,VWS V13.01,2013-03-08 18:57:00,
2013-03-08 14:02:00,33.1,29.9,29.86,NNE,33,32.0,38.0,88,0.00,,SKC,0.02,VWS V13.01,2013-03-08 19:02:00,
2013-03-08 14:07:00,33.1,30.2,29.87,NNE,15,36.0,40.0,89,0.00,,SKC,0.02,VWS V13.01,2013-03-08 19:07:00,
2013-03-08 14:12:00,33.0,30.1,29.87,North,11,37.0,47.0,89,0.00,,SKC,0.02,VWS V13.01,2013-03-08 19:12:00,
2013-03-08 14:17:00,32.9,30.3,29.87,NNE,30,19.0,47.0,90,0.00,,SKC,0.02,VWS V13.01,2013-03-08 19:17:00,
2013-03-08 14:22:00,33.0,30.4,29.87,NNE,22,25.0,40.0,90,0.00,,SKC,0.02,VWS V13.01,2013-03-08 19:22:00,
2013-03-08 14:27:00,33.0,30.4,29.87,NNE,13,27.0,44.0,90,0.00,,SKC,0.02,VWS V13.01,2013-03-08 19:27:00,
2013-03-08 14:32:00,33.1,30.5,29.87,NNE,28,28.0,41.0,90,0.00,,SKC,0.02,VWS V13.01,2013-03-08 19:32:00,
2013-03-08 14:37:00,33.2,30.6,29.87,NNE,24,32.0,46.0,90,0.00,,SKC,0.02,VWS V13.01,2013-03-08 19:37:00,
2013-03-08 14:42:00,33.2,30.6,29.87,NNE,19,40.0,43.0,90,0.00,,SKC,0.02,VWS V13.01,2013-03-08 19:42:00,
2013-03-08 14:47:00,33.3,30.7,29.88,North,5,33.0,45.0,90,0.00,,SKC,0.02,VWS V13.01,2013-03-08 19:47:00,
2013-03-08 14:52:00,33.5,30.9,29.88,NNE,15,26.0,34.0,90,0.00,,SKC,0.02,VWS V13.01,2013-03-08 19:52:00,
2013-03-08 14:57:00,33.6,31.0,29.88,NNE,17,26.0,41.0,90,0.00,,SKC,0.02,VWS V13.01,2013-03-08 19:57:00,
2013-03-08 15:02:00,33.7,31.1,29.88,NNE,13,34.0,42.0,90,0.00,,SKC,0.02,VWS V13.01,2013-03-08 20:02:00,
2013-03-08 15:07:00,33.7,31.1,29.88,NNE,28,26.0,46.0,90,0.00,,SKC,0.02,VWS V13.01,2013-03-08 20:07:00,
2013-03-08 15:12:00,33.6,31.0,29.88,NNE,21,33.0,40.0,90,0.00,,SKC,0.02,VWS V13.01,2013-03-08 20:12:00,
2013-03-08 15:17:00,33.5,31.2,29.88,NNE,30,37.0,47.0,91,0.00,,SKC,0.02,VWS V13.01,2013-03-08 20:17:00,
2013-03-08 15:22:00,33.2,31.1,29.89,NNE,29,28.0,42.0,92,0.00,,SKC,0.02,VWS V13.01,2013-03-08 20:22:00,
2013-03-08 15:27:00,33.1,31.0,29.89,NNE,24,32.0,45.0,92,0.00,,SKC,0.02,VWS V13.01,2013-03-08 20:27:00,
2013-03-08 15:32:00,33.2,31.1,29.89,NNE,30,39.0,40.0,92,0.00,,SKC,0.02,VWS V13.01,2013-03-08 20:32:00,
2013-03-08 15:37:00,33.4,31.3,29.89,NNE,15,21.0,40.0,92,0.00,,SKC,0.02,VWS V13.01,2013-03-08 20:37:00,
2013-03-08 15:42:00,33.4,31.3,29.89,NNE,15,37.0,42.0,92,0.00,,SKC,0.02,VWS V13.01,2013-03-08 20:42:00,
2013-03-08 15:47:00,33.6,31.5,29.90,NNE,19,38.0,43.0,92,0.00,,SKC,0.02,VWS V13.01,2013-03-08 20:47:00,
2013-03-08 15:53:00,33.7,31.6,29.90,NNE,28,29.0,40.0,92,0.00,,SKC,0.02,VWS V13.01,2013-03-08 20:53:00,
2013-03-08 15:58:00,33.8,31.7,29.90,NNE,16,29.0,41.0,92,0.00,,SKC,0.02,VWS V13.01,2013-03-08 20:58:00,
2013-03-08 16:03:00,33.9,31.8,29.90,NNE,17,32.0,45.0,92,0.00,,SKC,0.02,VWS V13.01,2013-03-08 21:03:00,
2013-03-08 16:08:00,34.1,31.8,29.90,NNE,26,36.0,45.0,91,0.00,,SKC,0.02,VWS V13.01,2013-03-08 21:08:00,
2013-03-08 16:13:00,34.3,32.0,29.91,NNE,19,34.0,39.0,91,0.00,,SKC,0.02,VWS V13.01,2013-03-08 21:13:00,
2013-03-08 16:18:00,34.4,32.0,29.91,North,10,34.0,46.0,91,0.00,,SKC,0.02,VWS V13.01,2013-03-08 21:18:00,
2013-03-08 16:23:00,34.4,32.0,29.91,NNE,15,25.0,41.0,91,0.00,,SKC,0.02,VWS V13.01,2013-03-08 21:23:00,
2013-03-08 16:28:00,34.4,32.0,29.91,NNE,22,36.0,46.0,91,0.00,,SKC,0.02,VWS V13.01,2013-03-08 21:28:00,
2013-03-08 16:33:00,34.4,32.0,29.91,NNE,28,26.0,44.0,91,0.00,,SKC,0.02,VWS V13.01,2013-03-08 21:33:00,
2013-03-08 16:38:00,34.5,32.2,29.91,NNE,13,30.0,45.0,91,0.00,,SKC,0.02,VWS V13.01,2013-03-08 21:38:00,
2013-03-08 16:43:00,34.6,32.2,29.92,NNE,31,27.0,43.0,91,0.00,,SKC,0.02,VWS V13.01,2013-03-08 21:43:00,
2013-03-08 16:48:00,34.6,32.2,29.92,NNE,20,29.0,43.0,91,0.00,,SKC,0.02,VWS V13.01,2013-03-08 21:48:00,
2013-03-08 16:53:00,34.7,32.3,29.92,North,9,32.0,46.0,91,0.00,,SKC,0.02,VWS V13.01,2013-03-08 21:53:00,
2013-03-08 16:59:00,34.7,32.3,29.92,NNE,21,31.0,46.0,91,0.00,,SKC,0.02,VWS V13.01,2013-03-08 21:59:00,
2013-03-08 17:04:00,34.8,32.5,29.93,NNE,20,38.0,44.0,91,0.00,,SKC,0.02,VWS V13.01,2013-03-08 22:04:00,
2013-03-08 17:09:00,34.8,32.5,29.93,NNE,20,35.0,45.0,91,0.00,,SKC,0.02,VWS V13.01,2013-03-08 22:09:00,
2013-03-08 17:14:00,34.8,32.5,29.93,NNE,31,33.0,42.0,91,0.00,,SKC,0.02,VWS V13.01,2013-03-08 22:14:00,
2013-03-08 17:19:00,34.8,32.5,29.93,NNE,19,32.0,48.0,91,0.00,,SKC,0.02,VWS V13.01,2013-03-08 22:19:00,
2013-03-08 17:24:00,34.9,32.5,29.93,NE,42,29.0,44.0,91,0.00,,SKC,0.02,VWS V13.01,2013-03-08 22:24:00,
2013-03-08 17:29:00,34.9,32.5,29.93,NNE,17,28.0,46.0,91,0.00,,SKC,0.02,VWS V13.01,2013-03-08 22:29:00,
2013-03-08 17:34:00,34.9,32.5,29.94,NNE,13,34.0,46.0,91,0.00,,SKC,0.02,VWS V13.01,2013-03-08 22:34:00,
2013-03-08 17:39:00,34.9,32.5,29.94,NNE,33,29.0,48.0,91,0.00,,SKC,0.02,VWS V13.01,2013-03-08 22:39:00,
2013-03-08 17:44:00,34.9,32.5,29.94,NE,34,40.0,51.0,91,0.00,,SKC,0.02,VWS V13.01,2013-03-08 22:44:00,
2013-03-08 17:49:00,34.9,32.8,29.95,NNE,24,40.0,51.0,92,0.00,,SKC,0.02,VWS V13.01,2013-03-08 22:49:00,
2013-03-08 17:54:00,35.0,32.9,29.95,NNE,32,33.0,46.0,92,0.00,,SKC,0.02,VWS V13.01,2013-03-08 22:54:00,
2013-03-08 17:59:00,35.1,33.0,29.95,NNE,19,33.0,48.0,92,0.00,,SKC,0.02,VWS V13.01,2013-03-08 22:59:00,
2013-03-08 18:05:00,35.1,33.0,29.95,NNE,19,39.0,48.0,92,0.00,,SKC,0.02,VWS V13.01,2013-03-08 23:05:00,
2013-03-08 18:10:00,35.1,33.0,29.95,NNE,22,37.0,48.0,92,0.00,,SKC,0.02,VWS V13.01,2013-03-08 23:10:00,
2013-03-08 18:15:00,35.1,33.0,29.96,NNE,21,37.0,48.0,92,0.00,,SKC,0.02,VWS V13.01,2013-03-08 23:15:00,
2013-03-08 18:20:00,35.1,33.0,29.96,NNE,22,33.0,48.0,92,0.00,,SKC,0.02,VWS V13.01,2013-03-08 23:20:00,
2013-03-08 18:25:00,35.1,33.0,29.96,NNE,17,32.0,48.0,92,0.00,,SKC,0.02,VWS V13.01,2013-03-08 23:25:00,
2013-03-08 18:30:00,35.2,33.1,29.96,NNE,16,40.0,48.0,92,0.00,,SKC,0.02,VWS V13.01,2013-03-08 23:30:00,
2013-03-08 18:35:00,35.2,33.1,29.96,NE,46,38.0,46.0,92,0.00,,SKC,0.02,VWS V13.01,2013-03-08 23:35:00,
2013-03-08 18:40:00,35.3,33.2,29.96,NNE,28,37.0,46.0,92,0.00,,SKC,0.02,VWS V13.01,2013-03-08 23:40:00,
2013-03-08 18:45:00,35.4,33.3,29.97,NNE,22,42.0,46.0,92,0.00,,SKC,0.02,VWS V13.01,2013-03-08 23:45:00,
2013-03-08 18:50:00,35.4,33.3,29.97,NNE,32,30.0,52.0,92,0.00,,SKC,0.02,VWS V13.01,2013-03-08 23:50:00,
2013-03-08 18:55:00,35.4,33.3,29.97,NE,34,28.0,44.0,92,0.00,,SKC,0.02,VWS V13.01,2013-03-08 23:55:00,
2013-03-08 19:00:00,35.5,33.4,29.97,NE,34,30.0,45.0,92,0.00,,SKC,0.02,VWS V13.01,2013-03-09 00:00:00,
2013-03-08 19:05:00,35.6,33.5,29.98,NNE,21,29.0,47.0,92,0.00,,SKC,0.02,VWS V13.01,2013-03-09 00:05:00,
2013-03-08 19:10:00,35.6,33.5,29.98,NNE,28,18.0,47.0,92,0.00,,SKC,0.02,VWS V13.01,2013-03-09 00:10:00,
2013-03-08 19:15:00,35.7,33.6,29.98,NE,35,36.0,41.0,92,0.00,,SKC,0.02,VWS V13.01,2013-03-09 00:15:00,
2013-03-08 19:20:00,35.8,33.7,29.98,NNE,29,27.0,41.0,92,0.00,,SKC,0.02,VWS V13.01,2013-03-09 00:20:00,
2013-03-08 19:26:00,36.0,33.6,29.98,NNE,24,26.0,42.0,91,0.00,,SKC,0.02,VWS V13.01,2013-03-09 00:26:00,
2013-03-08 19:31:00,36.1,33.5,29.98,NE,35,29.0,42.0,90,0.00,,SKC,0.02,VWS V13.01,2013-03-09 00:31:00,
2013-03-08 19:36:00,36.4,33.8,29.98,NE,36,20.0,33.0,90,0.00,,SKC,0.02,VWS V13.01,2013-03-09 00:36:00,
2013-03-08 19:41:00,36.6,33.7,29.98,NNE,30,19.0,33.0,89,0.00,,SKC,0.02,VWS V13.01,2013-03-09 00:41:00,
2013-03-08 19:46:00,36.9,33.7,29.98,NNE,25,23.0,38.0,88,0.00,,SKC,0.02,VWS V13.01,2013-03-09 00:46:00,
2013-03-08 19:51:00,37.0,33.8,29.98,NNE,15,32.0,38.0,88,0.00,,SKC,0.02,VWS V13.01,2013-03-09 00:51:00,
2013-03-08 19:56:00,37.1,33.6,29.98,NNE,17,27.0,33.0,87,0.00,,SKC,0.02,VWS V13.01,2013-03-09 00:56:00,
2013-03-08 20:01:00,37.3,33.5,29.98,NNE,31,23.0,34.0,86,0.00,,SKC,0.02,VWS V13.01,2013-03-09 01:01:00,
2013-03-08 20:06:00,37.4,33.6,29.99,NNE,17,20.0,29.0,86,0.00,,SKC,0.02,VWS V13.01,2013-03-09 01:06:00,
2013-03-08 20:11:00,37.7,33.0,29.99,NNE,22,23.0,29.0,83,0.00,,SKC,0.02,VWS V13.01,2013-03-09 01:11:00,
2013-03-08 20:16:00,38.2,32.6,30.00,North,11,20.0,30.0,80,0.00,,SKC,0.02,VWS V13.01,2013-03-09 01:16:00,
2013-03-08 20:21:00,38.6,31.7,29.99,NNE,15,19.0,24.0,76,0.00,,SKC,0.02,VWS V13.01,2013-03-09 01:21:00,
2013-03-08 20:26:00,38.8,31.2,30.00,North,360,27.0,31.0,74,0.00,,SKC,0.02,VWS V13.01,2013-03-09 01:26:00,
2013-03-08 20:31:00,38.9,31.0,29.99,NNE,19,16.0,24.0,73,0.00,,SKC,0.02,VWS V13.01,2013-03-09 01:31:00,
2013-03-08 20:36:00,39.1,30.5,29.99,NNE,21,25.0,34.0,71,0.00,,SKC,0.02,VWS V13.01,2013-03-09 01:36:00,
2013-03-08 20:41:00,39.3,30.4,30.00,North,5,24.0,27.0,70,0.00,,SKC,0.02,VWS V13.01,2013-03-09 01:41:00,
2013-03-08 20:46:00,39.6,30.3,30.00,North,355,27.0,39.0,69,0.00,,SKC,0.02,VWS V13.01,2013-03-09 01:46:00,
2013-03-08 20:51:00,39.8,30.1,30.00,NNE,16,22.0,27.0,68,0.00,,SKC,0.02,VWS V13.01,2013-03-09 01:51:00,
2013-03-08 20:56:00,40.1,30.0,30.00,NNE,21,33.0,37.0,67,0.00,,SKC,0.02,VWS V13.01,2013-03-09 01:56:00,
2013-03-08 21:01:00,40.2,29.8,29.99,North,9,32.0,33.0,66,0.00,,SKC,0.02,VWS V13.01,2013-03-09 02:01:00,
2013-03-08 21:06:00,40.4,29.6,29.99,NNE,20,20.0,38.0,65,0.00,,SKC,0.02,VWS V13.01,2013-03-09 02:06:00,
2013-03-08 21:11:00,40.4,29.6,29.99,NE,45,21.0,25.0,65,0.00,,SKC,0.02,VWS V13.01,2013-03-09 02:11:00,
2013-03-08 21:16:00,40.3,29.9,30.00,NNE,12,32.0,38.0,66,0.00,,SKC,0.02,VWS V13.01,2013-03-09 02:16:00,
2013-03-08 21:21:00,40.1,30.0,30.00,NE,38,21.0,28.0,67,0.00,,SKC,0.02,VWS V13.01,2013-03-09 02:21:00,
2013-03-08 21:26:00,40.1,29.7,30.00,North,5,24.0,36.0,66,0.00,,SKC,0.02,VWS V13.01,2013-03-09 02:26:00,
2013-03-08 21:31:00,40.0,29.6,30.00,NNE,14,36.0,36.0,66,0.00,,SKC,0.02,VWS V13.01,2013-03-09 02:31:00,
2013-03-08 21:36:00,40.1,29.3,30.00,NNE,17,41.0,41.0,65,0.00,,SKC,0.02,VWS V13.01,2013-03-09 02:36:00,
2013-03-08 21:41:00,40.2,29.0,30.00,NNE,19,26.0,33.0,64,0.00,,SKC,0.02,VWS V13.01,2013-03-09 02:41:00,
2013-03-08 21:46:00,40.2,29.0,30.00,NNE,14,32.0,44.0,64,0.00,,SKC,0.02,VWS V13.01,2013-03-09 02:46:00,
2013-03-08 21:51:00,40.3,28.7,30.00,North,5,28.0,34.0,63,0.00,,SKC,0.02,VWS V13.01,2013-03-09 02:51:00,
2013-03-08 21:56:00,40.2,28.6,30.01,NNE,27,25.0,41.0,63,0.00,,SKC,0.02,VWS V13.01,2013-03-09 02:56:00,
2013-03-08 22:01:00,40.2,28.2,30.00,NNE,28,31.0,33.0,62,0.00,,SKC,0.02,VWS V13.01,2013-03-09 03:01:00,
2013-03-08 22:06:00,40.2,27.8,30.01,NNE,13,31.0,36.0,61,0.00,,SKC,0.02,VWS V13.01,2013-03-09 03:06:00,
2013-03-08 22:11:00,40.1,27.8,30.01,NNE,23,23.0,30.0,61,0.00,,SKC,0.02,VWS V13.01,2013-03-09 03:11:00,
2013-03-08 22:16:00,40.0,28.0,30.01,NE,40,28.0,40.0,62,0.00,,SKC,0.02,VWS V13.01,2013-03-09 03:16:00,
2013-03-08 22:21:00,39.8,27.9,30.01,North,355,35.0,35.0,62,0.00,,SKC,0.02,VWS V13.01,2013-03-09 03:21:00,
2013-03-08 22:27:00,39.8,27.9,30.01,NNE,18,23.0,40.0,62,0.00,,SKC,0.02,VWS V13.01,2013-03-09 03:27:00,
2013-03-08 22:32:00,39.7,28.1,30.01,NNE,17,37.0,40.0,63,0.00,,SKC,0.02,VWS V13.01,2013-03-09 03:32:00,
2013-03-08 22:37:00,39.7,28.5,30.01,NNE,16,30.0,40.0,64,0.00,,SKC,0.02,VWS V13.01,2013-03-09 03:37:00,
2013-03-08 22:42:00,39.5,28.0,30.01,NNE,22,27.0,34.0,63,0.00,,SKC,0.02,VWS V13.01,2013-03-09 03:42:00,
2013-03-08 22:47:00,39.6,28.1,30.01,NNE,15,33.0,40.0,63,0.00,,SKC,0.02,VWS V13.01,2013-03-09 03:47:00,
2013-03-08 22:52:00,39.5,28.0,30.01,North,11,32.0,36.0,63,0.00,,SKC,0.02,VWS V13.01,2013-03-09 03:52:00,
2013-03-08 22:57:00,39.5,28.0,30.01,NNE,14,40.0,45.0,63,0.00,,SKC,0.02,VWS V13.01,2013-03-09 03:57:00,
2013-03-08 23:02:00,39.4,28.2,30.01,NNE,22,31.0,33.0,64,0.00,,SKC,0.02,VWS V13.01,2013-03-09 04:02:00,
2013-03-08 23:07:00,39.4,28.2,30.01,NNE,32,35.0,51.0,64,0.00,,SKC,0.02,VWS V13.01,2013-03-09 04:07:00,
2013-03-08 23:12:00,39.4,27.9,30.00,NNE,21,36.0,36.0,63,0.00,,SKC,0.02,VWS V13.01,2013-03-09 04:12:00,
2013-03-08 23:17:00,39.3,27.8,30.00,NNE,31,28.0,41.0,63,0.00,,SKC,0.02,VWS V13.01,2013-03-09 04:17:00,
2013-03-08 23:22:00,39.2,27.7,30.00,NNE,15,40.0,40.0,63,0.00,,SKC,0.02,VWS V13.01,2013-03-09 04:22:00,
2013-03-08 23:27:00,39.3,27.8,30.00,NNE,14,30.0,43.0,63,0.00,,SKC,0.02,VWS V13.01,2013-03-09 04:27:00,
2013-03-08 23:32:00,39.2,27.7,30.00,North,5,27.0,40.0,63,0.00,,SKC,0.02,VWS V13.01,2013-03-09 04:32:00,
2013-03-08 23:37:00,39.0,27.9,30.00,NNE,13,28.0,46.0,64,0.00,,SKC,0.02,VWS V13.01,2013-03-09 04:37:00,
2013-03-08 23:42:00,39.0,27.5,30.01,NNE,32,32.0,34.0,63,0.00,,SKC,0.02,VWS V13.01,2013-03-09 04:42:00,
2013-03-08 23:47:00,38.9,27.8,30.01,North,11,36.0,45.0,64,0.00,,SKC,0.02,VWS V13.01,2013-03-09 04:47:00,
2013-03-08 23:52:00,38.8,27.7,30.01,North,5,28.0,42.0,64,0.00,,SKC,0.02,VWS V13.01,2013-03-09 04:52:00,
2013-03-08 23:57:00,38.8,27.7,30.01,NNE,13,25.0,42.0,64,0.00,,SKC,0.02,VWS V13.01,2013-03-09 04:57:00,